Simultaneous Nadir Overpasses (SNOs) Predictions

Prediction of SNOs between LANDSAT-8 and METOP-B Satellite Orbit:

Table of predicted SNOs for the next 14.0 days since TLE Epoch: 3/7/2014
Index Date (LANDSAT-8) Time (LANDSAT-8) Lat,Lon (LANDSAT-8) SZA (LANDSAT-8 ) Date (METOP-B) Time (METOP-B) Lat,Lon (METOP-B) SZA (METOP-B ) Distance(km) Time Diff (sec)
1 03/09/2014 04:39:00 -81.08, -30.99 92.73 03/09/2014 04:38:31 -81.07, -31.12 92.75 2.38 29
2 03/09/2014 05:28:25 81.10, 137.03 87.32 03/09/2014 05:29:10 81.10, 137.02 87.34 0.17 45
3 03/12/2014 00:13:16 -81.08, 35.48 93.80 03/12/2014 00:12:54 -81.08, 35.46 93.82 0.43 22
4 03/12/2014 01:02:41 81.10,-156.53 86.24 03/12/2014 01:03:33 81.10,-156.46 86.27 1.30 52
5 03/14/2014 19:47:33 -81.07, 101.76 94.91 03/14/2014 19:47:18 -81.07, 101.60 94.93 2.66 15
6 03/14/2014 20:36:58 81.09, -90.28 85.13 03/14/2014 20:37:57 81.09, -90.38 85.14 1.70 59
7 03/17/2014 15:21:49 -81.07, 168.20 96.00 03/17/2014 15:21:40 -81.07, 168.05 96.02 2.58 9
8 03/17/2014 16:11:14 81.09, -23.85 84.04 03/17/2014 16:12:19 81.09, -23.99 84.05 2.35 65
9 03/20/2014 10:56:06 -81.08,-125.18 97.06 03/20/2014 10:56:02 -81.08,-125.19 97.06 0.32 4




NCC Satellite Simultaneous Nadir Overpasses (SNOs) Prediction Service
